Home > Weather > Stroudsburg > Past weeks

Flag for USA Past Weather in Stroudsburg, Pennsylvania, USA — Yesterday and Last 2 Weeks

Now
69 °F

Scattered clouds.


Feels Like: 69 °F
Forecast: 54 / 80 °F
Wind: 15 mph from Northwest

Location: Pocono Mountains Municipal Airport

Current Time: May 24, 2016 at 5:38:23 PM

Latest Report: May 24, 2016 at 4:53 PM


Visibility: 10 mi

Pressure: 29.93 "Hg

Humidity: 24%

Dew Point: 31 °F

Location of StroudsburgLocation

Past Weather in Stroudsburg — Graph

°F

Stroudsburg Temperature Yesterday

Maximum temperature yesterday: 69 °F (at 4:53 PM)
Minimum temperature yesterday: 46 °F (at 4:53 AM)
Average temperature yesterday: 57 °F

High & Low Weather Summary for the Past Weeks

 TemperatureHumidityPressure
High73 °F (May 12, 2:53 PM)100% (May 13, 7:53 AM)30.27 "Hg (May 13, 7:53 AM)
Low29 °F (May 16, 3:53 AM)26% (May 12, 2:53 PM)29.64 "Hg (May 14, 6:53 PM)
Average51 °F65%30.02 "Hg
* Reported May 9 3:53 PM — May 24 3:53 PM, Stroudsburg, Weather by CustomWeather, © 2016

Note: Actual official high and low records may vary slightly from our data, if they occured in-between our weather recording intervals... More about our weather records

Advertising

Stroudsburg Weather History for the Previous 24 Hours

Scroll right to see more
 ConditionsComfort  
Time TempWeatherWind HumidityBarometerVisibility
3:53 PM
Tue, May 24
69 °FSunny.12 mph29%29.93 "Hg10 mi
2:53 PM69 °FPartly sunny.14 mph30%29.93 "Hg10 mi
1:53 PM69 °FPassing clouds.17 mph30%29.93 "Hg10 mi
1:04 PM66 °FPartly sunny.15 mph36%29.95 "Hg10 mi
12:53 PM69 °FPartly sunny.13 mph31%29.94 "Hg10 mi
11:53 AM65 °FPartly sunny.12 mph40%29.96 "Hg10 mi
10:53 AM61 °FSunny.8 mph46%29.97 "Hg10 mi
9:53 AM59 °FScattered clouds.10 mph54%29.96 "Hg10 mi
8:53 AM55 °FScattered clouds.9 mph67%29.97 "Hg10 mi
7:53 AM51 °FSunny.7 mph80%29.94 "Hg10 mi
6:53 AM50 °FSunny.7 mph77%29.93 "Hg10 mi
5:53 AM48 °FClear.7 mph80%29.92 "Hg10 mi
4:53 AM50 °FClear.8 mph74%29.90 "Hg10 mi
3:53 AM52 °FClear.9 mph69%29.89 "Hg10 mi
2:53 AM52 °FClear.8 mph72%29.90 "Hg10 mi
1:53 AM53 °FPassing clouds.7 mph74%29.90 "Hg10 mi
12:53 AM54 °FPassing clouds.6 mph74%29.90 "Hg10 mi
11:53 PM
Mon, May 23
50 °FPassing clouds.3 mph93%29.92 "Hg10 mi
10:53 PM49 °FClear.6 mph97%29.92 "Hg10 mi
9:53 PM52 °FPassing clouds.3 mph83%29.92 "Hg10 mi
8:53 PM54 °FBroken clouds.No wind80%29.91 "Hg10 mi
7:53 PM63 °FPartly sunny.3 mph52%29.89 "Hg10 mi
6:53 PM69 °FPassing clouds.12 mph36%29.88 "Hg10 mi
5:53 PM68 °FPartly sunny.8 mph39%29.88 "Hg10 mi
Weather by CustomWeather, © 2016

See weather overviewHow to use our weather pages